STARLINK-34696, 64808

Orbit data source: Space-Track

STARLINK-34696, 64808 is a payload satellite owned by SpaceX/Seattle (US) in LEO that was launched on Wed, 16 Jul 2025 UTC via an FALCON 9 launch vehicle from the Air Force Western Test Range (AFWTR). Payload-class satellites include a variety of spacecraft equipped with specific instruments for various scientific and technological missions. These include communications satellites like Starlink; space stations such as the ISS; scientific satellites like the Hubble; Earth observation satellites from companies like Planet Labs, Umbra, and HawkEye 360; GPS; miniature CubeSats for education and research; and military/defense satellites.

Loading next visibility...
Identifier
64808, 2025-150U
Orbit
LEO
Country
Flag of USUS
Related business
Manufacturer
SpaceX/Seattle
Mission
Operational Commercial Communications
Bus & Motor
STARLINK V2MO, Unknown motor
Mass
575 kg wet, ~530 kg dry
Launch date (UTC)
2025-07-16 (11 months ago)
Launch vehicle
FALCON 9
Launch site
Air Force Western Test Range (AFWTR)
Object type
Payload
Rocket body
Debris
Shape & HBR
Box + 2 Pan, 17.7 m
Radar Cross Section
36.964 m², Large (>1 m²)

Expand to show TLE details & history
Last TLE update: 10 hours ago

TLE from 10 hours ago
0 STARLINK-34696
1 64808U 25150U   26171.42232142  .00000284  00000-0  31597-4 0  9999
2 64808  70.0003 235.4855 0003805 268.7802  91.2921 14.98337462 51905
Epoch: 2026-06-20T10:08Z
TLE epoch observation values (Epoch: 2026-06-20T10:08:08.570Z)
Latitude
-0.00005°
Longitude
174.8126°
Altitude
574.517 km
Speed
7.574 km/s
True Right ascension
15h 41m 56s
True Declination
0° 00' 00"
Sunlit
Object was in full shadow at epoch
Visualization orbit readout
Latitude
Unknown
Longitude
Unknown
Altitude
Unknown
Speed
Unknown
Apparent Right ascension
Unknown
Apparent Declination
Unknown
Sunlit
N/A
Visualization observer readout
Local Sidereal Time
07:13:14
Azimuth
Unknown
Elevation
Unknown
Doppler factor
Unknown
Orbital elements
Apogee altitude
572.625 km
Perigee altitude
567.337 km
Semi-major axis
6,948.118 km
Eccentricity
0.00038
Inclination
70.0003°
RAAN
235.4855°
Arg. of periapsis
268.7802°
True anomaly
91.33569°
Mean anomaly
91.2921°
Eccentric anomaly
91.3139°
Mean motion
3.74751 °/min
Orbital period
96.06 mins
BSTAR
0.000031597
Loading maneuver chart data...
Computing Atmospheric mass density...
Loading historical data...
Loading historical data...
Loading historical data...
Loading historical data...
Loading historical data...
Loading historical data...
Loading historical data...

Documentation

Showing up to 5 results
|